DW7787 Weather Reports


Display with metric or nautical units.
time (UTC)temp
F
wind
direction
speed
MPH
gust
MPH
rain 1hr
in
rain 24hr
in
rain mn
in
humidity
%
barometer
mb
20260903045122 80 43 0.0 1.0 0.00 0.00 0.00 77 1018.1
20260903044623 80 43 0.0 1.0 0.00 0.00 0.00 77 1018.1
20260903044121 80 42 0.0 2.0 0.00 0.00 0.00 77 1018.1
20260903043619 80 43 1.0 2.0 0.00 0.00 0.00 77 1018.1
20260903043119 80 43 0.0 2.0 0.00 0.00 0.00 77 1018.1
20260903042621 79 43 0.0 1.0 0.00 0.00 0.00 77 1018.1
20260903042419 79 42 0.0 1.0 0.00 0.00 0.00 77 1018.1
20260903041613 80 42 0.0 1.0 0.00 0.00 0.00 77 1018.1
20260903041114 80 43 0.0 1.0 0.00 0.00 0.00 77 1018.2
20260903040613 80 43 0.0 1.0 0.00 0.00 0.00 77 1018.1
20260903040116 80 43 0.0 1.0 0.00 0.00 0.00 77 1018.4
20260903035613 80 43 0.0 1.0 0.00 0.00 0.00 77 1018.4
20260903035113 80 43 0.0 0.0 0.00 0.00 0.00 76 1018.6
20260903034612 80 42 0.0 0.0 0.00 0.00 0.00 77 1018.8
20260903034113 80 42 0.0 0.0 0.00 0.00 0.00 77 1018.8
20260903033932 80 43 0.0 1.0 0.00 0.00 0.00 77 1018.7
20260903033413 80 42 0.0 1.0 0.00 0.00 0.00 76 1018.7
20260903032611 81 43 0.0 0.0 0.00 0.00 0.00 75 1018.8
20260903032112 81 43 0.0 0.0 0.00 0.00 0.00 75 1018.9
20260903031609 81 42 0.0 0.0 0.00 0.00 0.00 75 1019.0
20260903031104 81 42 0.0 0.0 0.00 0.00 0.00 75 1019.1
20260903030603 81 43 0.0 0.0 0.00 0.00 0.00 75 1019.1
20260903025559 81 43 0.0 1.0 0.00 0.00 0.00 75 1019.2
20260903025058 82 43 0.0 1.0 0.00 0.00 0.00 74 1019.2
20260903024912 82 43 0.0 0.0 0.00 0.00 0.00 74 1019.3
20260903024215 82 43 0.0 0.0 0.00 0.00 0.00 73 1019.5
20260903024145 82 43 0.0 0.0 0.00 0.00 0.00 73 1019.5
20260903023422 82 43 0.0 0.0 0.00 0.00 0.00 72 1019.4
20260903022558 82 43 0.0 0.0 0.00 0.00 0.00 72 1019.5
20260903022227 83 43 0.0 0.0 0.00 0.00 0.00 71 1019.6
20260903022153 82 43 0.0 0.0 0.00 0.00 0.00 71 1019.5
20260903021054 83 43 0.0 0.0 0.00 0.00 0.00 70 1019.5
20260903020554 83 43 0.0 0.0 0.00 0.00 0.00 69 1019.5
20260903020054 83 43 0.0 0.0 0.00 0.00 0.00 69 1019.5
20260903015918 83 43 0.0 0.0 0.00 0.00 0.00 69 1019.5
20260903015054 84 43 0.0 0.0 0.00 0.00 0.00 69 1019.6
20260903014742 84 43 0.0 1.0 0.00 0.00 0.00 67 1019.3
20260903014700 84 43 0.0 0.0 0.00 0.00 0.00 68 1019.4
20260903013557 85 43 0.0 1.0 0.00 0.00 0.00 66 1019.3
20260903013054 85 43 0.0 0.0 0.00 0.00 0.00 66 1019.1
20260903012557 85 42 0.0 0.0 0.00 0.00 0.00 66 1019.0
20260903012424 86 43 0.0 0.0 0.00 0.00 0.00 66 1018.9
20260903011603 86 42 0.0 0.0 0.00 0.00 0.00 64 1018.8
20260903011056 86 43 0.0 0.0 0.00 0.00 0.00 64 1018.8
20260903010559 87 43 0.0 0.0 0.00 0.00 0.00 63 1018.7
20260903010056 87 42 0.0 0.0 0.00 0.00 0.00 63 1018.7
20260903005555 87 43 0.0 0.0 0.00 0.00 0.00 62 1018.4
20260903005414 87 43 0.0 0.0 0.00 0.00 0.00 62 1018.6
20260903004550 88 43 0.0 0.0 0.00 0.00 0.00 61 1018.4
20260903004404 88 43 0.0 0.0 0.00 0.00 0.00 61 1018.4
20260903003551 89 43 0.0 0.0 0.00 0.00 0.00 61 1018.6
20260903003050 89 43 0.0 0.0 0.00 0.00 0.00 59 1018.3
20260903002551 89 42 0.0 1.0 0.00 0.00 0.00 58 1018.3
20260903002050 90 42 0.0 1.0 0.00 0.00 0.00 57 1018.2
20260903001921 90 43 0.0 1.0 0.00 0.00 0.00 57 1018.3
20260903001051 91 43 0.0 1.0 0.00 0.00 0.00 57 1018.2
20260903000550 91 43 0.0 0.0 0.00 0.00 0.00 55 1018.2
20260903000049 91 43 0.0 0.0 0.00 0.00 0.00 55 1018.2
20260902235547 91 42 0.0 0.0 0.00 0.00 0.00 54 1018.2
20260902235048 92 42 0.0 0.0 0.00 0.00 0.00 53 1018.2
20260902234548 92 42 0.0 0.0 0.00 0.00 0.00 53 1018.1
20260902234401 92 42 0.0 0.0 0.00 0.00 0.00 52 1018.1
20260902233551 92 42 0.0 0.0 0.00 0.00 0.00 52 1018.1
20260902233047 93 42 0.0 0.0 0.00 0.00 0.00 52 1018.1
20260902232546 93 43 0.0 0.0 0.00 0.00 0.00 51 1018.2
20260902232345 93 43 0.0 0.0 0.00 0.00 0.00 51 1018.2
20260902231535 93 43 0.0 1.0 0.00 0.00 0.00 51 1018.2
20260902231036 93 43 0.0 2.0 0.00 0.00 0.00 50 1018.1
20260902230536 94 43 1.0 2.0 0.00 0.00 0.00 50 1018.1
20260902230033 94 43 1.0 2.0 0.00 0.00 0.00 50 1018.1
20260902225533 94 42 1.0 2.0 0.00 0.00 0.00 49 1018.1
20260902225030 94 42 1.0 2.0 0.00 0.00 0.00 49 1018.1
20260902224528 95 43 1.0 2.0 0.00 0.00 0.00 49 1018.0
20260902224029 95 43 1.0 2.0 0.00 0.00 0.00 48 1018.1
20260902223529 95 42 1.0 2.0 0.00 0.00 0.00 47 1018.0
20260902223029 96 55 1.0 2.0 0.00 0.00 0.00 47 1018.0
20260902222534 96 348 1.0 2.0 0.00 0.00 0.00 48 1018.1
20260902222415 96 51 1.0 2.0 0.00 0.00 0.00 48 1018.1
20260902221530 96 111 1.0 2.0 0.00 0.00 0.00 48 1018.1
20260902221029 96 43 1.0 3.0 0.00 0.00 0.00 48 1018.2
20260902220534 96 65 1.0 3.0 0.00 0.00 0.00 47 1018.1
20260902220028 96 99 1.0 1.0 0.00 0.00 0.00 46 1018.2
20260902215529 96 99 1.0 2.0 0.00 0.00 0.00 45 1018.2
20260902215031 97 99 1.0 2.0 0.00 0.00 0.00 46 1018.2
20260902214522 97 92 1.0 2.0 0.00 0.00 0.00 45 1018.3
20260902214025 97 92 1.0 3.0 0.00 0.00 0.00 46 1018.3
20260902213521 97 58 1.0 3.0 0.00 0.00 0.00 45 1018.4
20260902213025 96 53 1.0 2.0 0.00 0.00 0.00 45 1018.3
20260902212522 97 56 1.0 2.0 0.00 0.00 0.00 46 1018.2
20260902212017 96 92 1.0 2.0 0.00 0.00 0.00 46 1018.3
20260902211520 96 92 0.0 1.0 0.00 0.00 0.00 46 1018.3
20260902211015 97 92 1.0 2.0 0.00 0.00 0.00 46 1018.3
20260902210517 97 282 1.0 2.0 0.00 0.00 0.00 45 1018.3
20260902210015 97 57 1.0 2.0 0.00 0.00 0.00 46 1018.3
20260902205517 97 262 1.0 2.0 0.00 0.00 0.00 45 1018.6
20260902205306 96 5 1.0 2.0 0.00 0.00 0.00 47 1018.6
20260902204513 97 5 1.0 2.0 0.00 0.00 0.00 45 1018.6
20260902204506 97 28 1.0 3.0 0.00 0.00 0.00 45 1018.6
20260902204502 97 36 1.0 3.0 0.00 0.00 0.00 45 1018.4
20260902203013 97 116 1.0 3.0 0.00 0.00 0.00 46 1018.6
20260902202513 96 28 1.0 4.0 0.00 0.00 0.00 47 1018.4
20260902202346 96 5 1.0 4.0 0.00 0.00 0.00 48 1018.4
20260902201519 95 73 1.0 4.0 0.00 0.00 0.00 49 1018.6
20260902201015 94 97 0.0 2.0 0.00 0.00 0.00 51 1018.6
20260902200513 94 196 1.0 3.0 0.00 0.00 0.00 52 1018.7
20260902200332 94 196 1.0 3.0 0.00 0.00 0.00 50 1018.8
20260902195503 94 234 1.0 3.0 0.00 0.00 0.00 50 1019.0
20260902195003 93 340 1.0 3.0 0.00 0.00 0.00 52 1019.0
20260902194845 94 37 1.0 2.0 0.00 0.00 0.00 51 1019.0
20260902194004 94 46 1.0 3.0 0.00 0.00 0.00 51 1019.0
20260902193500 94 32 1.0 3.0 0.00 0.00 0.00 51 1019.1
20260902193002 94 331 1.0 3.0 0.00 0.00 0.00 51 1019.0
20260902192501 94 68 1.0 3.0 0.00 0.00 0.00 51 1019.1
20260902192002 94 42 0.0 1.0 0.00 0.00 0.00 50 1019.2
20260902191503 94 42 0.0 1.0 0.00 0.00 0.00 50 1019.2
20260902191004 94 42 1.0 2.0 0.00 0.00 0.00 50 1019.3
20260902190505 94 42 1.0 2.0 0.00 0.00 0.00 50 1019.4
20260902190001 95 42 1.0 2.0 0.00 0.00 0.00 50 1019.5
20260902185502 95 49 1.0 3.0 0.00 0.00 0.00 50 1019.5
20260902185318 96 51 1.0 3.0 0.00 0.00 0.00 48 1019.5
20260902184814 96 68 1.0 3.0 0.00 0.00 0.00 47 1019.5
20260902184004 97 115 2.0 6.0 0.00 0.00 0.00 48 1019.6
20260902183504 99 155 1.0 6.0 0.00 0.00 0.00 44 1019.6
20260902183001 99 155 1.0 5.0 0.00 0.00 0.00 45 1019.7
20260902182506 98 146 1.0 5.0 0.00 0.00 0.00 45 1019.7
20260902182001 98 44 1.0 5.0 0.00 0.00 0.00 46 1019.6
20260902181501 97 329 2.0 6.0 0.00 0.00 0.00 46 1019.7
20260902181001 97 259 2.0 6.0 0.00 0.00 0.00 45 1019.8
20260902180501 97 245 1.0 5.0 0.00 0.00 0.00 45 1019.9
20260902180005 97 70 2.0 5.0 0.00 0.00 0.00 47 1019.9
20260902175813 97 59 3.0 9.0 0.00 0.00 0.00 46 1019.9
20260902175001 96 268 3.0 9.0 0.00 0.00 0.00 45 1019.9
20260902174501 96 240 2.0 6.0 0.00 0.00 0.00 48 1020.1
20260902174003 96 307 1.0 4.0 0.00 0.00 0.00 48 1020.1
20260902173501 96 155 2.0 6.0 0.00 0.00 0.00 49 1020.2
20260902173003 95 202 3.0 8.0 0.00 0.00 0.00 49 1020.1
20260902172500 94 224 2.0 8.0 0.00 0.00 0.00 49 1020.2
20260902172005 94 38 1.0 5.0 0.00 0.00 0.00 50 1020.2
20260902171459 93 127 2.0 7.0 0.00 0.00 0.00 50 1020.3
20260902170959 93 39 2.0 7.0 0.00 0.00 0.00 51 1020.3
20260902170459 93 61 1.0 4.0 0.00 0.00 0.00 51 1020.4
20260902165959 93 55 1.0 3.0 0.00 0.00 0.00 52 1020.5
20260902165457 93 47 1.0 3.0 0.00 0.00 0.00 53 1020.5
20260902165005 92 342 2.0 4.0 0.00 0.00 0.00 53 1020.5
20260902164505 92 40 2.0 4.0 0.00 0.00 0.00 53 1020.6
20260902164244 92 142 2.0 4.0 0.00 0.00 0.00 54 1020.7
20260902163459 92 53 2.0 6.0 0.00 0.00 0.00 54 1020.8
20260902162956 92 0 1.0 6.0 0.00 0.00 0.00 55 1020.7
20260902162459 91 71 1.0 4.0 0.00 0.00 0.00 56 1020.7
20260902161958 91 36 1.0 3.0 0.00 0.00 0.00 57 1020.7
20260902161756 91 109 1.0 3.0 0.00 0.00 0.00 55 1020.7
20260902161001 91 59 1.0 3.0 0.00 0.00 0.00 56 1020.8
20260902160455 91 349 1.0 4.0 0.00 0.00 0.00 56 1020.9
20260902155957 91 63 2.0 4.0 0.00 0.00 0.00 56 1020.9
20260902155455 90 246 2.0 4.0 0.00 0.00 0.00 58 1021.0
20260902155300 90 154 1.0 3.0 0.00 0.00 0.00 60 1020.9
20260902154456 89 5 1.0 3.0 0.00 0.00 0.00 59 1021.0
20260902153954 89 355 1.0 3.0 0.00 0.00 0.00 59 1021.0
20260902153456 89 65 1.0 2.0 0.00 0.00 0.00 59 1021.1
20260902153317 88 150 1.0 4.0 0.00 0.00 0.00 62 1021.1
20260902152812 88 167 1.0 4.0 0.00 0.00 0.00 64 1021.1
20260902151955 87 221 1.0 3.0 0.00 0.00 0.00 64 1021.0
20260902151455 87 40 0.0 2.0 0.00 0.00 0.00 66 1021.1
20260902150956 87 40 1.0 2.0 0.00 0.00 0.00 66 1021.0
20260902150457 87 338 1.0 2.0 0.00 0.00 0.00 65 1020.9
20260902145956 86 305 1.0 3.0 0.00 0.00 0.00 66 1020.8
20260902145455 86 26 1.0 3.0 0.00 0.00 0.00 69 1020.9
20260902144958 86 52 1.0 3.0 0.00 0.00 0.00 70 1020.9
20260902144804 85 240 1.0 3.0 0.00 0.00 0.00 69 1020.9
20260902143954 85 339 1.0 4.0 0.00 0.00 0.00 68 1020.9
20260902143456 85 46 1.0 4.0 0.00 0.00 0.00 70 1020.8
20260902142954 84 38 1.0 3.0 0.00 0.00 0.00 71 1020.8
20260902142456 84 56 1.0 3.0 0.00 0.00 0.00 72 1020.9
20260902141956 83 202 1.0 3.0 0.00 0.00 0.00 72 1020.8
20260902141456 83 266 1.0 3.0 0.00 0.00 0.00 72 1020.8
20260902140954 83 19 1.0 2.0 0.00 0.00 0.00 74 1020.7
20260902140452 82 47 1.0 2.0 0.00 0.00 0.00 74 1020.8
20260902135954 82 30 1.0 2.0 0.00 0.00 0.00 75 1020.9
20260902135448 82 351 1.0 2.0 0.00 0.00 0.00 76 1020.6
20260902134950 81 59 1.0 2.0 0.00 0.00 0.00 76 1020.7
20260902134825 81 167 1.0 3.0 0.00 0.00 0.00 77 1020.7
20260902133952 81 9 2.0 4.0 0.00 0.00 0.00 77 1020.8
20260902133756 80 355 1.0 4.0 0.00 0.00 0.00 79 1020.9
20260902132947 80 348 1.0 4.0 0.00 0.00 0.00 80 1020.9
20260902132837 79 227 1.0 4.0 0.00 0.00 0.00 81 1020.9
20260902131948 79 9 1.0 4.0 0.00 0.00 0.00 81 1020.8
20260902131446 78 9 1.0 4.0 0.00 0.00 0.00 83 1020.8
20260902130948 78 5 1.0 3.0 0.00 0.00 0.00 84 1020.9
20260902130446 77 355 0.0 3.0 0.00 0.00 0.00 85 1020.9
20260902125943 77 273 1.0 2.0 0.00 0.00 0.00 86 1020.9
20260902125446 76 347 1.0 3.0 0.00 0.00 0.00 87 1020.9
20260902124945 75 9 1.0 3.0 0.00 0.00 0.00 89 1020.9
20260902124441 75 50 0.0 2.0 0.00 0.00 0.00 90 1020.9
20260902124313 75 50 0.0 1.0 0.00 0.00 0.00 92 1020.8
20260902123816 74 50 0.0 1.0 0.00 0.00 0.00 92 1020.7
20260902122936 74 50 0.0 1.0 0.00 0.00 0.00 93 1020.6
20260902122437 74 50 0.0 1.0 0.00 0.00 0.00 93 1020.6
20260902121936 74 50 0.0 1.0 0.00 0.00 0.00 93 1020.6
20260902121438 74 50 0.0 0.0 0.00 0.00 0.00 93 1020.5
20260902120934 74 50 0.0 0.0 0.00 0.00 0.00 93 1020.5
20260902120432 74 50 0.0 0.0 0.00 0.00 0.00 93 1020.5
20260902115929 74 50 0.0 0.0 0.00 0.00 0.00 93 1020.5
20260902115804 73 50 0.0 0.0 0.00 0.00 0.00 92 1020.4
20260902114924 73 50 0.0 0.0 0.00 0.00 0.00 92 1020.5
20260902114422 73 50 0.0 1.0 0.00 0.00 0.00 92 1020.5
20260902113927 73 50 0.0 1.0 0.00 0.00 0.00 92 1020.5
20260902113420 73 50 0.0 0.0 0.00 0.00 0.00 92 1020.5
20260902112919 73 50 0.0 0.0 0.00 0.00 0.00 92 1020.4
20260902112416 73 50 0.0 1.0 0.00 0.00 0.00 92 1020.3
20260902111914 73 50 0.0 1.0 0.00 0.00 0.00 92 1020.3
20260902111411 74 50 0.0 1.0 0.00 0.00 0.00 92 1020.3
20260902110910 74 50 0.0 0.0 0.00 0.00 0.00 91 1020.2
20260902110410 74 50 0.0 0.0 0.00 0.00 0.00 91 1020.2
20260902105910 74 50 0.0 0.0 0.00 0.00 0.00 91 1020.2
20260902105408 74 50 0.0 1.0 0.00 0.00 0.00 91 1020.1
20260902104907 74 50 0.0 1.0 0.00 0.00 0.00 91 1020.2
20260902104404 74 50 0.0 0.0 0.00 0.00 0.00 91 1020.1
20260902103905 74 50 0.0 0.0 0.00 0.00 0.00 91 1020.1
20260902103405 74 50 0.0 0.0 0.00 0.00 0.00 91 1020.2
20260902102905 74 50 0.0 0.0 0.00 0.00 0.00 91 1020.2
20260902102402 74 50 0.0 0.0 0.00 0.00 0.00 91 1020.2
20260902101901 74 50 0.0 0.0 0.00 0.00 0.00 91 1020.2
20260902101405 74 50 0.0 0.0 0.00 0.00 0.00 91 1020.0
20260902100902 74 50 0.0 0.0 0.00 0.00 0.00 91 1019.9
20260902100402 74 50 0.0 1.0 0.00 0.00 0.00 91 1019.9
20260902095903 74 50 0.0 1.0 0.00 0.00 0.00 91 1019.9
20260902095401 74 50 0.0 1.0 0.00 0.00 0.00 91 1019.8
20260902094901 74 50 0.0 0.0 0.00 0.00 0.00 91 1019.7
20260902094401 74 50 0.0 0.0 0.00 0.00 0.00 91 1019.8
20260902093903 74 50 0.0 0.0 0.00 0.00 0.00 91 1019.8
20260902093400 74 50 0.0 1.0 0.00 0.00 0.00 91 1019.8
20260902092902 74 50 0.0 1.0 0.00 0.00 0.00 91 1019.7
20260902092403 74 50 0.0 1.0 0.00 0.00 0.00 91 1019.6
20260902091904 74 50 0.0 1.0 0.00 0.00 0.00 90 1019.6
20260902091708 74 50 0.0 1.0 0.00 0.00 0.00 90 1019.6
20260902090904 74 50 0.0 0.0 0.00 0.00 0.00 90 1019.6
20260902090400 74 50 0.0 0.0 0.00 0.00 0.00 90 1019.6
20260902085902 74 50 0.0 0.0 0.00 0.00 0.00 90 1019.6
20260902085401 74 50 0.0 0.0 0.00 0.00 0.00 90 1019.6
20260902084903 74 50 0.0 1.0 0.00 0.00 0.00 89 1019.5
20260902084359 74 50 0.0 1.0 0.00 0.00 0.00 90 1019.5
20260902083856 74 50 0.0 1.0 0.00 0.00 0.00 89 1019.4
20260902083357 74 50 0.0 1.0 0.00 0.00 0.00 89 1019.4
20260902082855 74 50 0.0 1.0 0.00 0.00 0.00 89 1019.4
20260902082351 74 50 0.0 1.0 0.00 0.00 0.00 89 1019.3
20260902081852 74 50 0.0 1.0 0.00 0.00 0.00 88 1019.3
20260902081351 74 50 0.0 1.0 0.00 0.00 0.00 88 1019.3
20260902080852 74 50 0.0 1.0 0.00 0.00 0.00 88 1019.2
20260902080352 74 50 0.0 0.0 0.00 0.00 0.00 88 1019.3
20260902075850 74 50 0.0 0.0 0.00 0.00 0.00 88 1019.4
20260902075348 75 50 0.0 0.0 0.00 0.00 0.00 88 1019.3
20260902074848 75 50 0.0 1.0 0.00 0.00 0.00 88 1019.2
20260902074348 75 50 0.0 1.0 0.00 0.00 0.00 88 1019.3
20260902074151 75 50 0.0 0.0 0.00 0.00 0.00 87 1019.3
20260902073345 75 50 0.0 0.0 0.00 0.00 0.00 87 1019.2
20260902072846 75 50 0.0 1.0 0.00 0.00 0.00 87 1019.1
20260902072345 75 50 0.0 1.0 0.00 0.00 0.00 87 1019.1
20260902071843 75 50 0.0 0.0 0.00 0.00 0.00 86 1019.3
20260902071344 75 50 0.0 0.0 0.00 0.00 0.00 86 1019.2
20260902070848 75 50 0.0 0.0 0.00 0.00 0.00 86 1019.2
20260902070342 75 50 0.0 0.0 0.00 0.00 0.00 86 1019.2
20260902065842 76 50 0.0 0.0 0.00 0.00 0.00 86 1019.2
20260902065343 76 50 0.0 0.0 0.00 0.00 0.00 86 1019.3
20260902064847 76 50 0.0 0.0 0.00 0.00 0.00 86 1019.3
20260902064344 76 50 0.0 0.0 0.00 0.00 0.00 86 1019.3
20260902063844 76 50 0.0 0.0 0.00 0.00 0.00 86 1019.3
20260902063340 76 50 0.0 0.0 0.00 0.00 0.00 86 1019.3
20260902062843 76 50 0.0 1.0 0.00 0.00 0.00 86 1019.3
20260902062342 76 50 0.0 1.0 0.00 0.00 0.00 85 1019.3
20260902061841 76 50 0.0 0.0 0.00 0.00 0.00 84 1019.3
20260902061642 77 50 0.0 0.0 0.00 0.00 0.00 83 1019.2
20260902060838 77 50 0.0 0.0 0.00 0.00 0.00 82 1019.2
20260902060338 77 50 0.0 0.0 0.00 0.00 0.00 82 1019.3
20260902055838 77 50 0.0 0.0 0.00 0.00 0.00 82 1019.2
20260902055338 77 50 0.0 0.0 0.00 0.00 0.00 82 1019.2
20260902054839 77 50 0.0 0.0 0.00 0.00 0.00 81 1019.3
20260902054633 77 50 0.0 1.0 0.00 0.00 0.00 81 1019.3
20260902053839 77 50 0.0 1.0 0.00 0.00 0.00 81 1019.3
20260902053338 78 50 0.0 1.0 0.00 0.00 0.00 81 1019.2
20260902053205 78 50 0.0 1.0 0.00 0.00 0.00 81 1019.2
20260902052337 78 50 0.0 1.0 0.00 0.00 0.00 81 1019.3
20260902051839 78 50 0.0 1.0 0.00 0.00 0.00 80 1019.2
20260902051337 78 50 0.0 1.0 0.00 0.00 0.00 80 1019.1
20260902050838 78 50 1.0 1.0 0.00 0.00 0.00 80 1019.1
20260902050338 78 50 1.0 2.0 0.00 0.00 0.00 80 1019.2
20260902045840 78 50 1.0 2.0 0.00 0.00 0.00 79 1019.1